Wind_Speed
62 61 60 59 60 60 55 55 57 59 59 56 55 58 58 55 53 52 52 51 49 46 44 45 44 39 39 33 32 29 30 30 29 32 24 29 29 30 32 29 29 32 33
62 61 60 60 61 59 57 57 53 57 59 59 58 55 55 56 53 52 52 52 50 46 43 40 40 37 32 32 32 34 33 28 26 30 26 34 30 33 32 34 35 34 34
53 66 64 61 62 60 58 55 54 57 59 59 58 58 57 55 54 52 51 50 48 45 41 37 36 33 31 33 33 33 33 35 35 36 36 35 34 35 34 36 40 34 30
49 63 69 67 66 65 63 60 54 52 49 49 52 56 58 56 53 51 50 48 45 43 40 36 34 33 32 32 33 35 37 36 34 36 40 39 39 37 27 35 27 32 26
45 57 72 74 72 67 64 61 58 55 51 45 48 48 48 49 49 49 50 48 45 41 38 36 34 34 34 34 34 33 36 33 32 31 39 41 42 35 37 28 27 24 18
46 51 58 68 73 70 65 62 61 58 52 46 47 45 45 43 42 43 46 48 46 43 38 36 35 35 35 33 33 34 34 30 29 28 31 37 41 33 34 35 28 25 19
49 50 56 59 62 66 66 64 62 57 51 48 47 41 40 38 38 35 36 37 38 36 36 35 35 34 33 32 32 32 29 28 29 28 26 32 35 41 39 28 26 33 22
50 52 58 63 61 62 60 58 59 57 53 50 47 42 39 37 37 34 33 34 32 33 33 33 33 32 31 30 29 29 30 27 28 29 26 24 23 37 39 26 25 25 15
62 57 61 64 66 73 72 67 61 65 60 54 50 46 42 40 37 35 33 33 33 33 34 34 33 30 29 30 30 32 32 30 27 29 27 24 22 22 17 23 25 23 14
67 67 67 67 66 69 69 71 64 61 61 59 52 49 46 43 40 36 35 35 35 34 34 34 32 31 31 32 32 32 34 31 27 28 27 26 24 21 21 24 22 15 17
67 66 69 67 61 60 63 62 60 66 63 60 53 52 48 45 44 39 34 37 38 37 37 36 34 34 33 33 32 31 32 28 25 26 26 25 24 23 23 29 29 19 18
74 70 67 73 68 63 61 59 60 60 55 55 58 60 55 51 46 43 36 37 39 40 41 40 38 36 35 31 31 30 29 24 20 24 25 25 24 26 21 23 25 21 19
62 74 77 71 73 72 63 62 61 59 55 52 53 59 57 56 53 47 38 41 40 40 42 42 41 35 31 28 30 31 33 28 23 26 26 27 25 27 17 19 26 20 18
59 58 61 81 77 75 72 67 64 62 55 55 52 50 54 55 54 50 44 44 45 43 41 41 41 39 37 32 33 33 33 32 29 31 28 28 24 33 24 18 18 19 16
37 49 43 44 76 77 73 71 65 60 57 58 54 54 56 55 58 51 47 44 47 48 44 44 44 43 38 37 37 38 42 40 36 35 32 29 35 33 25 22 21 19 17
29 36 36 34 43 69 77 76 72 67 61 58 56 55 52 54 53 47 47 49 45 43 47 47 50 46 40 42 44 44 47 46 42 39 35 28 37 37 21 21 19 18 18
13 32 32 31 36 44 58 82 73 69 65 59 56 53 54 55 54 53 55 51 52 49 50 51 49 50 48 48 49 52 52 47 44 41 32 31 35 21 21 19 19 19 20
19 19 18 14 14 22 35 61 72 65 64 64 57 50 50 53 53 51 51 55 48 48 48 47 52 54 54 55 55 54 49 43 43 39 30 30 23 22 22 20 20 21 20
8 4 7 9 11 15 25 43 63 61 58 59 58 56 53 53 53 51 48 45 46 47 49 46 46 48 51 48 48 40 37 39 40 30 29 35 25 23 22 22 21 20 19
19 15 12 9 7 7 11 23 40 54 60 54 59 60 59 59 53 48 47 50 48 49 49 46 45 43 47 47 40 33 33 33 28 27 31 35 23 25 25 26 22 22 22
22 20 17 16 14 10 10 11 18 29 46 47 42 45 46 45 48 49 46 43 42 41 36 33 36 40 41 39 33 30 29 27 24 25 24 24 24 21 17 20 22 20 22
24 21 15 11 11 11 12 16 19 23 27 28 28 27 29 31 32 34 35 34 35 35 29 27 30 34 34 32 31 30 28 24 29 26 24 23 22 21 17 16 20 23 22
33 27 26 23 18 13 8 7 13 18 21 22 22 25 25 27 29 30 30 30 30 30 30 31 33 33 35 32 31 30 29 29 25 24 24 22 23 20 20 19 22 23 18
34 31 28 27 26 24 22 17 17 16 20 23 26 26 25 25 24 25 26 30 31 33 36 37 36 32 31 29 25 28 30 28 24 24 25 20 22 22 21 20 21 20 19
38 37 30 26 26 29 29 28 22 18 24 25 25 26 30 30 31 33 34 33 39 39 38 34 31 29 26 28 27 28 26 24 24 24 25 24 24 20 19 20 20 18 17
29 31 38 31 24 24 27 28 28 26 29 31 30 28 27 30 30 32 37 37 36 33 30 29 30 27 24 24 24 24 24 26 25 25 25 25 23 22 21 19 18 17 16
Wind_Direction
236 235 236 235 233 234 233 231 236 241 245 247 248 250 251 251 252 254 255 257 259 261 262 264 266 270 276 274 270 263 265 273 273 261 264 265 261 269 275 281 285 282 280
239 238 236 231 232 231 235 234 236 238 242 246 247 248 248 248 248 250 252 254 257 258 259 259 260 260 266 271 270 268 264 262 266 262 266 267 268 270 273 277 281 289 281
236 234 234 234 229 233 235 237 242 242 243 244 246 247 246 246 246 245 247 249 251 253 255 255 255 257 261 263 264 264 267 269 261 253 256 259 263 265 267 278 277 279 266
235 227 228 230 233 233 238 242 244 245 247 251 249 248 248 247 246 244 245 248 250 251 252 253 253 253 258 257 260 264 267 275 279 273 258 256 266 264 277 281 278 274 272
231 228 222 226 230 237 239 236 237 240 244 250 247 250 251 248 246 245 245 246 247 248 248 249 250 251 253 257 259 263 266 274 282 279 257 254 262 265 265 284 277 263 250
234 230 228 230 231 234 237 238 242 240 242 247 241 244 247 244 243 244 244 245 246 248 249 249 250 250 251 254 254 256 266 273 287 284 268 262 263 251 270 273 270 266 254
235 238 238 227 230 234 235 237 238 240 242 244 242 240 239 241 238 241 243 242 242 242 242 242 242 243 246 250 252 258 274 276 281 287 285 280 289 280 262 257 264 272 246
241 235 225 224 225 227 227 233 235 240 239 241 242 238 236 236 235 234 237 237 236 235 234 233 235 239 243 247 254 264 269 276 281 282 290 288 271 270 238 278 301 266 235
241 240 241 224 219 222 223 226 231 236 236 239 245 237 239 235 230 229 231 235 235 233 232 233 233 238 246 252 257 263 269 272 277 283 288 292 280 267 250 277 296 245 232
237 239 243 236 239 216 212 227 228 231 233 234 240 239 237 236 233 232 231 231 233 234 236 236 237 241 246 253 257 263 269 274 276 280 289 294 291 288 289 267 269 221 235
235 234 238 241 238 236 226 224 226 230 232 227 231 236 238 237 238 235 239 237 234 233 235 235 240 241 244 247 251 260 266 276 279 280 284 286 292 281 284 277 277 217 236
236 233 235 235 236 234 234 234 235 235 233 233 235 234 237 237 237 235 242 240 237 236 234 236 240 241 243 246 252 255 263 275 273 278 277 282 283 279 276 266 245 222 231
235 235 230 231 233 233 231 233 230 228 229 230 234 228 228 233 235 233 238 237 236 239 238 237 237 229 240 250 254 262 265 275 275 280 286 286 280 286 272 262 212 223 228
232 235 229 226 227 229 228 228 229 226 228 230 228 228 229 233 236 235 231 234 236 236 238 235 234 239 238 249 256 257 270 277 272 278 284 288 281 284 256 254 205 221 227
233 218 220 226 222 227 228 228 226 226 228 230 229 226 232 230 234 231 225 229 234 233 231 234 234 239 249 251 260 264 277 278 274 275 283 285 279 280 287 194 213 217 223
221 209 211 216 223 226 225 227 224 225 225 226 227 227 229 229 224 222 220 226 230 233 230 237 243 245 253 253 261 264 277 275 271 270 279 279 278 287 202 209 212 218 229
186 196 212 228 239 237 229 222 224 224 225 228 229 228 229 228 225 225 226 231 238 236 237 241 243 249 255 255 257 267 272 266 265 266 275 270 275 227 215 215 216 223 229
141 165 189 198 219 221 217 214 220 222 225 226 227 229 228 231 229 228 229 232 239 241 244 245 246 247 249 251 257 260 257 255 257 262 262 269 272 214 221 219 220 222 224
88 172 217 228 228 220 215 217 218 219 220 223 222 225 229 229 228 228 234 238 239 237 235 245 243 242 240 239 246 239 238 245 251 254 256 269 218 223 219 218 216 215 219
74 82 95 108 132 168 199 211 216 222 219 216 221 225 231 233 236 236 238 234 232 234 242 244 243 237 235 227 230 217 225 236 238 247 250 216 211 215 217 215 199 220 215
62 73 82 86 87 106 127 154 190 199 204 210 217 225 228 231 232 231 231 228 230 229 224 231 239 223 204 210 206 205 213 221 233 232 204 207 211 217 232 211 195 218 222
62 63 67 78 93 106 125 151 170 185 195 203 206 203 202 201 206 212 216 210 205 214 226 224 197 187 188 192 195 198 201 216 208 206 206 207 211 212 218 211 215 221 215
66 70 72 68 71 74 90 148 169 172 175 180 187 187 187 191 193 196 200 208 219 216 199 188 180 178 182 188 189 194 208 210 201 203 205 204 196 201 212 216 213 214 223
66 72 78 78 69 60 69 97 120 147 166 180 186 190 195 203 208 203 194 177 178 182 176 170 171 178 183 185 190 203 194 198 199 204 211 187 202 205 203 204 203 209 213
45 66 69 71 70 72 72 76 82 119 145 153 150 151 153 155 156 157 161 166 165 164 169 171 172 173 183 200 207 188 189 194 198 201 199 202 200 197 196 202 205 210 215
47 52 50 61 68 73 75 75 77 99 120 133 139 140 145 151 154 158 163 166 169 172 169 172 172 175 178 171 177 188 192 194 198 199 199 199 197 197 201 206 208 209 214
Height
5646 5654 5660 5667 5673 5678 5683 5688 5693 5700 5704 5709 5714 5718 5723 5728 5733 5736 5739 5742 5745 5748 5752 5754 5754 5756 5757 5759 5759 5758 5759 5760 5761 5762 5763 5761 5762 5761 5761 5758 5758 5757 5755
5630 5638 5646 5653 5657 5663 5669 5675 5681 5687 5693 5698 5702 5706 5710 5715 5721 5725 5728 5731 5735 5739 5742 5745 5747 5748 5750 5749 5749 5751 5752 5753 5755 5755 5754 5754 5754 5754 5753 5751 5751 5750 5749
5614 5620 5630 5638 5643 5648 5654 5661 5668 5675 5680 5685 5689 5693 5698 5703 5708 5712 5716 5720 5724 5728 5731 5735 5737 5739 5741 5742 5744 5744 5745 5746 5748 5747 5746 5745 5745 5746 5745 5746 5745 5744 5742
5600 5606 5614 5621 5627 5633 5641 5649 5656 5662 5667 5672 5677 5680 5685 5690 5695 5700 5704 5708 5713 5717 5721 5724 5726 5729 5731 5734 5735 5737 5737 5737 5736 5736 5737 5737 5737 5737 5738 5738 5737 5736 5738
5587 5591 5596 5601 5609 5617 5625 5633 5641 5648 5655 5660 5666 5669 5673 5677 5682 5688 5693 5698 5702 5706 5710 5714 5717 5719 5722 5724 5726 5727 5728 5729 5729 5728 5728 5729 5728 5728 5731 5732 5731 5730 5731
5575 5578 5583 5588 5594 5602 5611 5620 5629 5636 5643 5649 5656 5660 5663 5666 5671 5675 5680 5686 5691 5696 5700 5704 5708 5711 5713 5716 5719 5720 5722 5722 5721 5720 5720 5721 5721 5722 5723 5726 5724 5724 5725
5562 5565 5566 5572 5580 5590 5598 5606 5614 5623 5631 5638 5644 5650 5653 5657 5662 5666 5671 5676 5680 5685 5690 5694 5698 5702 5705 5708 5711 5712 5712 5714 5714 5713 5714 5715 5715 5715 5715 5718 5719 5718 5718
5546 5552 5550 5551 5563 5573 5582 5591 5602 5610 5618 5625 5631 5637 5642 5647 5652 5657 5662 5667 5672 5677 5681 5685 5690 5694 5697 5700 5703 5704 5705 5706 5706 5707 5708 5709 5708 5708 5704 5706 5710 5711 5712
5526 5534 5539 5542 5549 5554 5565 5575 5585 5594 5604 5611 5618 5625 5631 5637 5642 5647 5652 5658 5663 5668 5673 5678 5682 5686 5689 5692 5695 5697 5698 5699 5701 5701 5701 5700 5699 5696 5698 5703 5705 5705 5709
5508 5516 5519 5527 5535 5545 5547 5558 5569 5580 5589 5597 5604 5612 5619 5625 5632 5637 5643 5647 5654 5660 5664 5670 5674 5678 5682 5685 5688 5690 5691 5692 5694 5694 5693 5692 5691 5690 5693 5696 5700 5702 5703
5489 5496 5502 5508 5519 5532 5540 5547 5556 5565 5573 5583 5592 5600 5607 5614 5621 5627 5633 5639 5644 5650 5654 5660 5665 5670 5675 5678 5681 5683 5683 5686 5688 5688 5688 5687 5686 5687 5689 5690 5692 5695 5698
5463 5476 5486 5495 5502 5513 5524 5534 5543 5553 5561 5571 5579 5588 5595 5602 5609 5617 5622 5628 5633 5640 5646 5651 5657 5662 5666 5669 5672 5675 5677 5680 5682 5682 5682 5682 5682 5682 5683 5684 5687 5690 5692
5440 5452 5465 5476 5487 5495 5508 5519 5530 5540 5549 5557 5565 5574 5582 5589 5597 5605 5613 5619 5624 5629 5635 5642 5648 5654 5658 5661 5664 5666 5669 5673 5675 5675 5675 5676 5677 5676 5676 5676 5680 5686 5687
5423 5431 5441 5454 5467 5479 5491 5503 5514 5527 5537 5546 5554 5562 5570 5576 5585 5593 5601 5608 5614 5619 5625 5633 5639 5645 5650 5653 5656 5659 5662 5665 5668 5668 5668 5669 5670 5670 5669 5673 5676 5680 5682
5403 5414 5426 5435 5450 5463 5475 5488 5501 5513 5523 5534 5543 5551 5557 5564 5572 5580 5589 5596 5602 5608 5615 5623 5629 5635 5639 5643 5646 5649 5652 5657 5660 5662 5663 5664 5663 5663 5662 5667 5672 5674 5677
5394 5407 5419 5429 5439 5449 5459 5471 5484 5497 5509 5521 5529 5539 5546 5552 5558 5568 5579 5585 5591 5599 5607 5613 5619 5624 5628 5632 5636 5639 5643 5647 5652 5654 5657 5657 5656 5657 5659 5664 5667 5670 5672
5393 5404 5418 5425 5430 5433 5436 5453 5469 5484 5496 5507 5518 5526 5534 5540 5549 5559 5567 5573 5580 5588 5596 5603 5608 5613 5617 5621 5625 5630 5635 5639 5643 5647 5650 5652 5652 5652 5657 5659 5662 5666 5669
5404 5411 5418 5422 5424 5426 5430 5440 5457 5470 5482 5494 5505 5513 5520 5528 5537 5546 5552 5560 5569 5577 5584 5590 5596 5601 5606 5610 5615 5621 5625 5630 5636 5641 5642 5644 5646 5648 5652 5655 5658 5662 5664
5414 5417 5419 5421 5424 5426 5430 5437 5447 5459 5473 5483 5493 5500 5508 5515 5523 5533 5541 5549 5557 5564 5572 5577 5581 5585 5591 5600 5606 5611 5616 5623 5629 5633 5636 5638 5640 5645 5648 5651 5654 5657 5659
5420 5421 5421 5422 5423 5426 5428 5431 5439 5448 5461 5473 5480 5489 5496 5506 5516 5524 5531 5538 5545 5553 5559 5563 5566 5571 5578 5589 5597 5602 5609 5616 5623 5626 5626 5627 5629 5638 5643 5646 5649 5652 5656
5430 5429 5429 5429 5430 5430 5431 5434 5439 5447 5457 5468 5476 5482 5489 5497 5504 5512 5521 5528 5535 5541 5548 5552 5554 5558 5567 5580 5589 5595 5603 5611 5616 5621 5623 5626 5630 5635 5636 5640 5643 5648 5652
5439 5438 5438 5438 5439 5439 5440 5442 5445 5451 5457 5464 5470 5476 5482 5489 5497 5506 5514 5520 5528 5535 5540 5544 5548 5555 5565 5575 5584 5592 5598 5605 5611 5616 5619 5624 5628 5632 5634 5637 5641 5645 5647
5450 5448 5446 5446 5445 5445 5445 5446 5449 5453 5459 5465 5470 5476 5482 5489 5496 5503 5510 5517 5524 5530 5535 5541 5547 5554 5563 5572 5581 5587 5594 5600 5605 5610 5614 5617 5619 5626 5631 5634 5637 5641 5643
5463 5460 5458 5457 5456 5454 5451 5450 5452 5455 5460 5466 5472 5478 5484 5490 5496 5501 5506 5512 5519 5527 5533 5540 5548 5555 5563 5571 5577 5583 5591 5598 5603 5607 5609 5612 5620 5625 5628 5631 5634 5637 5640
5476 5470 5468 5467 5466 5464 5462 5461 5462 5462 5465 5471 5477 5481 5486 5491 5497 5503 5509 5515 5522 5528 5535 5542 5549 5556 5563 5571 5576 5584 5590 5595 5601 5606 5611 5615 5619 5622 5625 5628 5631 5634 5637
5488 5484 5479 5477 5476 5476 5475 5475 5476 5477 5478 5481 5485 5489 5493 5497 5503 5509 5515 5521 5526 5531 5538 5544 5550 5555 5564 5571 5578 5584 5589 5594 5599 5604 5608 5612 5616 5619 5622 5625 5628 5631 5634